EW1857 Weather Reports


Display with metric or nautical units.
time (UTC)temp
F
wind
direction
speed
MPH
gust
MPH
rain 1hr
in
rain 24hr
in
rain mn
in
humidity
%
barometer
mb
20260503203916 58 0.0 0.0 0.00 0.00 0.00 52 1010.8
20260503203425 58 0.0 0.0 0.00 0.00 0.00 52 1010.7
20260503202419 58 0.0 0.0 0.00 0.00 0.00 51 1011.1
20260503201925 58 0.0 0.0 0.00 0.00 0.00 51 1011.1
20260503200917 59 0.0 0.0 0.00 0.00 0.00 50 1011.1
20260503200425 59 0.0 0.0 0.00 0.00 0.00 50 1011.1
20260503195926 60 0.0 0.0 0.00 0.00 0.00 50 1011.1
20260503194916 60 0.0 0.0 0.00 0.00 0.00 50 1010.8
20260503193916 60 0.0 0.0 0.00 0.00 0.00 48 1010.8
20260503192921 61 0.0 0.0 0.00 0.00 0.00 47 1010.9
20260503192425 61 0.0 0.0 0.00 0.00 0.00 47 1010.8
20260503191525 61 0.0 0.0 0.00 0.00 0.00 47 1010.8
20260503190525 62 0.0 0.0 0.00 0.00 0.00 46 1010.6
20260503185417 62 0.0 0.0 0.00 0.00 0.00 46 1010.6
20260503184418 63 0.0 0.0 0.00 0.00 0.00 45 1010.3
20260503183923 63 0.0 0.0 0.00 0.00 0.00 45 1010.3
20260503182625 64 0.0 0.0 0.00 0.00 0.00 46 1010.0
20260503181624 64 0.0 0.0 0.00 0.00 0.00 46 1010.0
20260503180619 64 0.0 0.0 0.00 0.00 0.00 47 1010.0
20260503175916 63 0.0 0.0 0.00 0.00 0.00 51 1009.9
20260503174919 66 0.0 0.0 0.00 0.00 0.00 42 1010.0
20260503174424 66 0.0 0.0 0.00 0.00 0.00 42 1010.0
20260503173417 66 0.0 0.0 0.00 0.00 0.00 40 1009.9
20260503172416 67 0.0 0.0 0.00 0.00 0.00 40 1009.8
20260503171416 67 0.0 0.0 0.00 0.00 0.00 40 1009.9
20260503170925 67 0.0 0.0 0.00 0.00 0.00 39 1010.1
20260503170423 67 0.0 0.0 0.00 0.00 0.00 39 1010.0
20260503150922 71 0.0 0.0 0.00 0.00 0.00 35 1010.5
20260503150423 71 0.0 0.0 0.00 0.00 0.00 35 1010.6
20260503130918 74 0.0 0.0 0.00 0.00 0.00 34 1011.8
20260503130422 74 0.0 0.0 0.00 0.00 0.00 33 1011.8
20260503110816 79 0.0 0.0 0.00 0.00 0.00 30 1013.5
20260503081218 68 0.0 0.0 0.00 0.00 0.00 43 1014.4
20260503080124 66 0.0 0.0 0.00 0.00 0.00 45 1014.4
20260503072917 65 0.0 0.0 0.00 0.00 0.00 48 1014.4
20260503072426 64 0.0 0.0 0.00 0.00 0.00 49 1014.4
20260503071927 64 0.0 0.0 0.00 0.00 0.00 50 1014.4
20260503070921 63 0.0 0.0 0.00 0.00 0.00 52 1014.3
20260503070422 62 0.0 0.0 0.00 0.00 0.00 51 1014.3
20260503054916 52 0.0 0.0 0.00 0.00 0.00 69 1013.8
20260503053920 51 0.0 0.0 0.00 0.00 0.00 70 1013.8
20260503053424 50 0.0 0.0 0.00 0.00 0.00 71 1013.8
20260503052416 49 0.0 0.0 0.00 0.00 0.00 71 1013.9
20260503051415 48 0.0 0.0 0.00 0.00 0.00 72 1013.9
20260503050417 47 0.0 0.0 0.00 0.00 0.00 72 1013.6
20260503045419 46 0.0 0.0 0.00 0.00 0.00 72 1013.6
20260503044924 46 0.0 0.0 0.00 0.00 0.00 72 1013.6
20260503043916 45 0.0 0.0 0.00 0.00 0.00 73 1013.6
20260503043224 45 0.0 0.0 0.00 0.00 0.00 73 1013.6
20260503041917 44 0.0 0.0 0.00 0.00 0.00 73 1013.6
20260503041424 44 0.0 0.0 0.00 0.00 0.00 73 1013.6
20260503040918 44 0.0 0.0 0.00 0.00 0.00 73 1013.5
20260503040423 44 0.0 0.0 0.00 0.00 0.00 73 1013.5
20260503035925 44 0.0 0.0 0.00 0.00 0.00 73 1013.5
20260503035025 44 0.0 0.0 0.00 0.00 0.00 73 1013.5
20260503034017 44 0.0 0.0 0.00 0.00 0.00 73 1013.5
20260503033024 44 0.0 0.0 0.00 0.00 0.00 73 1013.5
20260503031917 44 0.0 0.0 0.00 0.00 0.00 73 1013.6
20260503030916 44 0.0 0.0 0.00 0.00 0.00 73 1013.6
20260503030424 45 0.0 0.0 0.00 0.00 0.00 73 1013.6
20260503025925 45 0.0 0.0 0.00 0.00 0.00 73 1013.6
20260503024920 45 0.0 0.0 0.00 0.00 0.00 73 1013.6
20260503024425 45 0.0 0.0 0.00 0.00 0.00 73 1013.6
20260503023922 45 0.0 0.0 0.00 0.00 0.00 73 1013.6
20260503023426 45 0.0 0.0 0.00 0.00 0.00 73 1013.6
20260503022422 45 0.0 0.0 0.00 0.00 0.00 73 1013.3
20260503021922 45 0.0 0.0 0.00 0.00 0.00 73 1013.3
20260503021423 46 0.0 0.0 0.00 0.00 0.00 72 1013.3
20260503020926 46 0.0 0.0 0.00 0.00 0.00 72 1013.5
20260503020423 46 0.0 0.0 0.00 0.00 0.00 72 1013.6
20260503015924 46 0.0 0.0 0.00 0.00 0.00 72 1013.6
20260503014918 46 0.0 0.0 0.00 0.00 0.00 72 1013.2
20260503014426 46 0.0 0.0 0.00 0.00 0.00 72 1013.3
20260503013416 47 0.0 0.0 0.00 0.00 0.00 72 1013.3
20260503012422 47 0.0 0.0 0.00 0.00 0.00 72 1013.3
20260503011922 47 0.0 0.0 0.00 0.00 0.00 72 1013.3
20260503011425 47 0.0 0.0 0.00 0.00 0.00 72 1013.3
20260503010926 47 0.0 0.0 0.00 0.00 0.00 71 1013.5
20260503010422 47 0.0 0.0 0.00 0.00 0.00 71 1013.5
20260503005927 47 0.0 0.0 0.00 0.00 0.00 71 1013.5
20260503004619 48 0.0 0.0 0.00 0.00 0.00 71 1013.4
20260503003625 48 0.0 0.0 0.00 0.00 0.00 71 1013.4
20260503002917 48 0.0 0.0 0.00 0.00 0.00 70 1013.5
20260503001826 48 0.0 0.0 0.00 0.00 0.00 70 1013.5
20260503000824 49 0.0 0.0 0.00 0.00 0.00 70 1014.0
20260502235917 49 0.0 0.0 0.00 0.00 0.00 70 1014.0
20260502234921 49 0.0 0.0 0.00 0.00 0.00 69 1013.9
20260502234422 49 0.0 0.0 0.00 0.00 0.00 69 1013.9
20260502233321 49 0.0 0.0 0.00 0.00 0.00 68 1013.9
20260502232717 49 0.0 0.0 0.00 0.00 0.00 68 1014.0
20260502231724 50 0.0 0.0 0.00 0.00 0.00 69 1014.0
20260502230425 50 0.0 0.0 0.00 0.00 0.00 67 1014.1
20260502225926 50 0.0 0.0 0.00 0.00 0.00 68 1014.1
20260502225423 50 0.0 0.0 0.00 0.00 0.00 68 1014.1
20260502224924 50 0.0 0.0 0.00 0.00 0.00 68 1014.3
20260502224218 51 0.0 0.0 0.00 0.00 0.00 67 1014.3
20260502222916 51 0.0 0.0 0.00 0.00 0.00 66 1014.4
20260502221923 51 0.0 0.0 0.00 0.00 0.00 66 1014.4
20260502220924 52 0.0 0.0 0.00 0.00 0.00 66 1014.5
20260502215917 52 0.0 0.0 0.00 0.00 0.00 65 1014.5
20260502214920 52 0.0 0.0 0.00 0.00 0.00 65 1014.4
20260502214430 52 0.0 0.0 0.00 0.00 0.00 65 1014.4
20260502213415 53 0.0 0.0 0.00 0.00 0.00 65 1014.4
20260502212416 53 0.0 0.0 0.00 0.00 0.00 64 1014.5
20260502211319 53 0.0 0.0 0.00 0.00 0.00 64 1014.5
20260502210420 54 0.0 0.0 0.00 0.00 0.00 64 1014.5
20260502205923 54 0.0 0.0 0.00 0.00 0.00 63 1014.5
20260502205425 54 0.0 0.0 0.00 0.00 0.00 62 1014.4
20260502204925 54 0.0 0.0 0.00 0.00 0.00 62 1014.9